Regional Weather Roundup
Issued by NWS Upton, NY

Current Version | Previous Version | Text Only | Print | Product List | Glossary Off
Versions: 1 2 3 4 5 6 7 8 9 10 11 12 13 14 15 16 17 18 19 20 21 22 23 24 25 26

000
ASUS41 KOKX 291604
RWROKX

REGIONAL WEATHER ROUNDUP
NATIONAL WEATHER SERVICE NEW YORK NY
1200 PM EDT FRI APR 29 2016

NOTE: "FAIR" INDICATES FEW OR NO CLOUDS BELOW 12,000 FEET WITH NO
SIGNIFICANT WEATHER AND/OR OBSTRUCTIONS TO VISIBILITY.

NYZ071-072-176-178-NJZ106-104-291700-
NEW YORK CITY METRO AREA


CITY           SKY/WX    TMP DP  RH WIND       PRES   REMARKS
CENTRAL PARK   CLOUDY    55  24  30 E10G17    30.15R
LAGUARDIA APRT CLOUDY    55  25  31 E14G22    30.12S
KENNEDY INTL   PTSUNNY   53  29  39 E17       30.14R
NEWARK/LIBERTY CLOUDY    56  27  32 E9G20     30.12S
BRNX BOT. GARD   N/A     52  36  54 CALM      30.15R
TETERBORO      CLOUDY    54  33  45 E7        30.12R
$$

NYZ177-179-078>081-291700-
LONG ISLAND NEW YORK

CITY           SKY/WX    TMP DP  RH WIND       PRES   REMARKS
FARMINGDALE    CLOUDY    54  28  36 E12G22    30.13R
ISLIP          PTSUNNY   55  27  34 E18G26    30.13R
SHIRLEY        CLOUDY    53  29  39 E9G18     30.15R
RIVERHEAD        N/A     52  37  58 SE6       30.14S
WESTHAMPTON    CLOUDY    49  34  56 E14G23    30.15F
EAST HAMPTON   FAIR      50  35  56 E16       30.15F
MONTAUK POINT    N/A     50  36  58 E13G20    30.17F
$$

NYZ052-065-067-291700-
HUDSON VALLEY

CITY           SKY/WX    TMP DP  RH WIND       PRES   REMARKS
WHITE PLAINS   PTSUNNY   53  34  48 E10       30.12R
NEWBURGH       PTSUNNY   52  32  46 SE12      30.13R
MONTGOMERY     CLOUDY    54  31  41 VRB5      30.11S
POUGHKEEPSIE   CLOUDY    56  27  32 S9        30.12S
ALBANY         MOSUNNY   55  34  45 S9        30.12F
$$

NJZ001-105-106-008-010-013-015-019>022-104-291700-
NEW JERSEY

CITY           SKY/WX    TMP DP  RH WIND       PRES   REMARKS
NEWARK/LIBERTY CLOUDY    56  27  32 E9G20     30.12S
TETERBORO      CLOUDY    54  33  45 E7        30.12R
CALDWELL       CLOUDY    55  35  47 E9        30.12S
MORRISTOWN     CLOUDY    57  32  38 SE8G16    30.11F
SOMERVILLE     CLOUDY    54  34  46 SE9G18    30.09S
SUSSEX         CLOUDY    52  31  44 E7        30.11S
ANDOVER          N/A     52  32  46 VRB7      30.10S
TRENTON        CLOUDY    51  36  56 E12       30.10R
MILLVILLE      LGT RAIN  51  45  79 NE12      30.07S
ATLANTIC CITY  CLOUDY    52  44  74 NE9       30.08R
WRIGHTSTOWN    CLOUDY    51  38  63 E9        30.08R
TOMS RIVER     CLOUDY    48  37  66 E13G18    30.11S
BELMAR         CLOUDY    49  38  65 E15G22    30.12S
$$

PAZ047>061-062-071-291700-
EASTERN PENNSYLVANIA

CITY           SKY/WX    TMP DP  RH WIND       PRES   REMARKS
PHILADELPHIA   LGT RAIN  52  40  63 E10       30.09S
ALLENTOWN      CLOUDY    53  37  54 SE10      30.09S
SCRANTON       CLOUDY    54  32  43 VRB7      30.04F
$$

CTZ002-004>006-009-010-012-RIZ004-006-007-MAZ004-011-015-291700-
SOUTHERN NEW ENGLAND
 IN CT

CITY           SKY/WX    TMP DP  RH WIND       PRES   REMARKS
BRADLEY INTL   PTSUNNY   56  36  47 S8        30.13F
HARTFORD       CLOUDY    56  38  50 E7        30.14F
DANBURY        CLOUDY    53  33  46 E14       30.14S
WTRBRY/OXFORD  PTSUNNY   54  32  43 S13       30.15R
BRIDGEPORT     CLOUDY    51  38  60 E18       30.16S
MERIDEN        CLOUDY    55  37  50 E8        30.14F
NEW HAVEN      PTSUNNY   51  37  58 E17G23    30.16R
CHESTER        FAIR      52  36  54 VRB8      30.15S
GROTON         MOSUNNY   50  42  74 E20G25    30.17S
WILLIMANTIC    CLOUDY    56  34  43 VRB3      30.14F

 IN RI

CITY           SKY/WX    TMP DP  RH WIND       PRES   REMARKS
PROVIDENCE     MOSUNNY   53  31  42 VRB6      30.18S
BLOCK ISLAND   PTSUNNY   49  37  63 E13G22    30.18R
WESTERLY       MOSUNNY   50  35  56 E17       30.18S

 IN MA

CITY           SKY/WX    TMP DP  RH WIND       PRES   REMARKS
BOSTON         PTSUNNY   50  32  50 E16       30.20S
WORCESTER      MOSUNNY   50  28  42 E7        30.13F
WESTFIELD      MOSUNNY   56  31  38 MISG      30.13F
PROVINCETOWN   MOSUNNY   50  32  50 E10       30.21S
NANTUCKET      CLOUDY    48  33  56 E13       30.18S
$$

ANZ330-335-338-340-345-350-353-355-291700-
COASTAL MARINE OBSERVATIONS


STATION/POSITION TIME  SKY/WX   TEMP    WIND        PRES    VSBY  WAVE
                                AIR SEA DIR/SP/G                  HT/PER
                 (UTC)          (F)     (DEG/KT/KT) (MB)    (MI)  (FT/S)
NY HARB ENTRANCE 1450            48 51   80/ 17/ 21 1019.1          5/ 5
20S FIRE ISLAND  1450            47 48   80/ 19/ 23 1019.0          5/ 5
GREAT SOUTH BAY  1500            49 57   70/ 16/ 21   N/A
23 SSW MONTAUK P 1550            45 46   90/ 17/ 21 1020.0          5/ 6
15 E BARNEGAT LI 1522               51                N/A           5/ 6
HUDSON CANYON    1450            51 51              1017.6          6/ 7
KINGS POINT      1500            52 53              1019.8
EXECUTION ROCKS  NOT AVBL
CENTRAL LI SOUND 1500            47      90/ 16/ 19   N/A           3/ 4
EASTERN LI SOUND 1500            48 47   80/ 14/ 17   N/A
ROBBINS REEF     1500            51      90/ 15/ 20 1019.2
$$


>>>>>>>>>>>>>>>>>>>>>>>>>>>> KEY <<<<<<<<<<<<<<<<<<<<<<<<<<<
>                                                          <
>     SKY/WX - SKY CONDITION/PRESENT WEATHER               <
>     TMP    - TEMPERATURE IN FAHRENHEIT                   <
>     DP     - DEWPOINT IN FAHRENHEIT                      <
>     RH     - RELATIVE HUMIDITY IN PERCENT                <
>     WIND   - DIRECTION AND SPEED IN MPH                  <
>     PRES   - MEAN SEA LEVEL PRESSURE IN INCHES OF HG     <
>     WCI    - WIND CHILL INDEX                            <
>     VSB    - VISIBILITY IN MILES                         <
>     HX     - HEAT INDEX                                  <
>     TC     - TEMPERATURE IN CELSIUS                      <
>     VRB    - VARIABLE WIND DIRECTION                     <
>                                                          <
>>>>>>>>>>>>>>>>>>>>>>>>>>>> KEY <<<<<<<<<<<<<<<<<<<<<<<<<<<






USA.gov is the U.S. government's official web portal to all federal, state and local government web resources and services.